Corpus Christi, TX

7:13 PM CST on January 20, 2018 (GMT -0600)
Corpus Christi International

Weather History for KCRP - April, 2014

Change the Weather History Date:

Friday, April 4, 2014

  Actual Average Record
Temperature  
Mean Temperature 73 °F 70 °F  
Max Temperature 81 °F 80 °F 96 °F (2011)
Min Temperature 64 °F 60 °F 39 °F (1987)
Degree Days  
Heating Degree Days 0 1  
Month to date heating degree days 0 4  
Since 1 July heating degree days 1131 885  
Cooling Degree Days 8 6  
Month to date cooling degree days 47 24  
Year to date cooling degree days 208 215  
Growing Degree Days 24 (Base 50)    
Moisture  
Dew Point 57 °F    
Average Humidity 58    
Maximum Humidity 93    
Minimum Humidity 23    
Precipitation  
Precipitation 0.14 in 0.05 in 0.94 in (1971)
Month to date precipitation 0.14 0.21  
Year to date precipitation 2.70 5.57  
Snow  
Snow 0.00 in - - ()
Month to date snowfall 0.0  
Since 1 July snowfall T  
Snow Depth 0.00 in    
Sea Level Pressure  
Sea Level Pressure 29.90 in    
Wind  
Wind Speed 15 mph (NE)    
Max Wind Speed 36 mph    
Max Gust Speed 43 mph    
Visibility 8 miles    
Events Rain , Thunderstorm    
T = Trace of Precipitation, MM = Missing Value Source: NWS Daily Summary

Daily Weather History Graph

Daily Weather History Graph

Search for Another Location

Airport or City:

Trip Planner

Search our weather history database for the weather conditions in past years. The results will help you decide how hot, cold, wet, or windy it might be!

Date:

Astronomy

Apr. 04, 2014 Rise Set
Actual Time 7:16 AM CDT 7:49 PM CDT
Civil Twilight 6:53 AM CDT 8:12 PM CDT
Nautical Twilight 6:25 AM CDT 8:40 PM CDT
Astronomical Twilight 5:57 AM CDT 9:08 PM CDT
Moon 10:53 AM CDT (4/4) No Moon Set
Length of Visible Light 13h 19m
Length of Day
12h 32m
Waxing Crescent, 25% of the Moon is Illuminated
Apr 4
Waxing Crescent
Apr 7
First Quarter
Apr 15
Full
Apr 22
Last Quarter
Apr 29
New

Hourly Weather History & Observations

Time (CDT) Temp. Dew Point Humidity Pressure Visibility Wind Dir Wind Speed Gust Speed Precip Events Conditions
12:51 AM 75.0 °F 71.1 °F 87% 29.74 in 7.0 mi SSE 13.8 mph 21.9 mph N/A   Overcast
1:31 AM 73.9 °F 70.0 °F 87% 29.73 in 6.0 mi SSE 11.5 mph - N/A   Overcast
1:51 AM 73.9 °F 71.1 °F 91% 29.77 in 6.0 mi Calm Calm - N/A   Overcast
2:51 AM 75.0 °F 70.0 °F 84% 29.80 in 7.0 mi Calm Calm - N/A   Overcast
3:51 AM 75.0 °F 71.1 °F 87% 29.83 in 5.0 mi North 10.4 mph - 0.00 in Rain Light Rain
4:18 AM 73.9 °F 71.1 °F 91% 29.80 in 6.0 mi East 9.2 mph - 0.00 in   Overcast
4:36 AM 73.9 °F 71.1 °F 91% 29.83 in 6.0 mi ENE 6.9 mph - 0.00 in Thunderstorm Overcast
4:46 AM 73.4 °F 71.6 °F 94% 29.85 in 6.0 mi ENE 4.6 mph - 0.00 in Thunderstorm Overcast
4:51 AM 73.9 °F 71.1 °F 91% 29.85 in 6.0 mi ENE 3.5 mph - 0.00 in Rain , Thunderstorm Light Thunderstorms and Rain
5:14 AM 73.9 °F 71.1 °F 91% 29.86 in 4.0 mi NNE 10.4 mph - 0.06 in Rain , Thunderstorm Heavy Thunderstorms and Rain
5:43 AM 73.0 °F 71.1 °F 93% 29.81 in 4.0 mi East 11.5 mph - 0.12 in Rain Light Rain
5:51 AM 73.0 °F 71.1 °F 93% 29.82 in 4.0 mi East 9.2 mph - 0.12 in Rain Light Rain
6:10 AM 73.0 °F 71.1 °F 93% 29.82 in 4.0 mi East 3.5 mph - 0.00 in   Overcast
6:20 AM 73.0 °F 71.1 °F 93% 29.82 in 4.0 mi East 5.8 mph - 0.00 in   Overcast
6:48 AM 73.4 °F 71.6 °F 94% 29.84 in 4.0 mi NE 6.9 mph - 0.00 in   Overcast
6:51 AM 73.0 °F 71.1 °F 93% 29.85 in 4.0 mi NNE 8.1 mph - 0.00 in   Overcast
7:51 AM 73.9 °F 71.1 °F 91% 29.90 in 4.0 mi North 18.4 mph - N/A   Overcast
8:48 AM 69.8 °F 51.8 °F 53% 29.92 in 8.0 mi NNE 26.5 mph 38.0 mph 0.00 in Rain Light Rain
8:51 AM 69.1 °F 52.0 °F 54% 29.93 in 8.0 mi NNE 27.6 mph 38.0 mph 0.00 in Rain Light Rain
9:51 AM 69.1 °F 48.9 °F 49% 29.94 in 10.0 mi NNE 27.6 mph 38.0 mph 0.00 in   Scattered Clouds
10:51 AM 72.0 °F 45.0 °F 38% 29.98 in 10.0 mi NNE 25.3 mph 35.7 mph 0.02 in   Scattered Clouds
11:51 AM 73.9 °F 43.0 °F 33% 30.02 in 10.0 mi NNE 21.9 mph 33.4 mph N/A   Mostly Cloudy
12:51 PM 77.0 °F 41.0 °F 28% 30.01 in 10.0 mi NNE 24.2 mph 33.4 mph N/A   Mostly Cloudy
1:51 PM 79.0 °F 39.9 °F 25% 30.01 in 10.0 mi NNE 23.0 mph - N/A   Mostly Cloudy
2:51 PM 78.1 °F 37.9 °F 24% 30.01 in 10.0 mi NNE 19.6 mph - N/A   Mostly Cloudy
3:51 PM 80.1 °F 39.0 °F 23% 29.99 in 10.0 mi NE 16.1 mph - N/A   Mostly Cloudy
4:51 PM 79.0 °F 39.9 °F 25% 29.96 in 10.0 mi NE 16.1 mph - N/A   Overcast
5:51 PM 78.1 °F 41.0 °F 27% 29.96 in 10.0 mi NE 16.1 mph - N/A   Overcast
6:51 PM 77.0 °F 42.1 °F 29% 29.96 in 10.0 mi ENE 15.0 mph - N/A   Mostly Cloudy
7:51 PM 73.0 °F 43.0 °F 34% 29.97 in 10.0 mi NE 11.5 mph - N/A   Mostly Cloudy
8:51 PM 70.0 °F 42.1 °F 36% 29.98 in 10.0 mi NE 12.7 mph - N/A   Mostly Cloudy
9:51 PM 69.1 °F 41.0 °F 36% 30.01 in 10.0 mi NNE 12.7 mph - N/A   Scattered Clouds
10:51 PM 66.9 °F 41.0 °F 39% 30.02 in 10.0 mi NNE 10.4 mph - N/A   Overcast
11:51 PM 64.9 °F 42.1 °F 43% 30.02 in 10.0 mi NNE 12.7 mph - N/A   Mostly Cloudy